����,���ϕ���(m/s),���ϕ���,�ő�u�ԕ���(m/s),�ő啗��������,�C��(��),���x(%),10���Ԉړ��ώZ�J��(mm),1���Ԉړ��ώZ�J��(mm),���J��(mm),�݌v�J��(mm)
2023-11-20T00:00:00+09:00,0.6,��,1.4,���k��,5.2,92.9,0,0,0,0
2023-11-20T00:01:00+09:00,0.6,���k��,1.4,���k��,5.2,93,0,0,0,0
2023-11-20T00:02:00+09:00,0.7,���k��,2,���k��,5.2,93,0,0,0,0
2023-11-20T00:03:00+09:00,0.8,�k��,2,���k��,5.2,93,0,0,0,0
2023-11-20T00:04:00+09:00,0.9,�k��,2,���k��,5.2,93,0,0,0,0
2023-11-20T00:05:00+09:00,0.9,���k��,2,���k��,5.2,93.1,0,0,0,0
2023-11-20T00:06:00+09:00,1,���k��,2,���k��,5.3,93.3,0,0,0,0
2023-11-20T00:07:00+09:00,1.1,��,2,���k��,5.3,93.5,0,0,0,0
2023-11-20T00:08:00+09:00,1.1,��,2,���k��,5.3,93.4,0,0,0,0
2023-11-20T00:09:00+09:00,1.1,��,2,���k��,5.4,93.5,0,0,0,0
2023-11-20T00:10:00+09:00,1.1,��,2,���k��,5.4,93.5,0,0,0,0
2023-11-20T00:11:00+09:00,1.1,���쓌,2,���k��,5.4,93.4,0,0,0,0
2023-11-20T00:12:00+09:00,1.2,���쓌,2.5,�쓌,5.5,93.5,0,0,0,0
2023-11-20T00:13:00+09:00,1.2,�쓌,2.5,�쓌,5.5,93.6,0,0,0,0
2023-11-20T00:14:00+09:00,1.1,�쓌,2.5,�쓌,5.6,93.7,0,0,0,0
2023-11-20T00:15:00+09:00,1.1,�쓌,2.5,�쓌,5.6,93.8,0,0,0,0
2023-11-20T00:16:00+09:00,1,�쓌,2.5,�쓌,5.7,93.7,0,0,0,0
2023-11-20T00:17:00+09:00,1,�쓌,2.5,�쓌,5.7,93.6,0,0,0,0
2023-11-20T00:18:00+09:00,1,�쓌,2.5,�쓌,5.7,93.5,0,0,0,0
2023-11-20T00:19:00+09:00,1,�쓌,2.5,�쓌,5.7,93.5,0,0,0,0
2023-11-20T00:20:00+09:00,0.9,���쓌,2.5,�쓌,5.7,93.2,0,0,0,0
2023-11-20T00:21:00+09:00,0.9,���쓌,2.5,�쓌,5.7,93.1,0,0,0,0
2023-11-20T00:22:00+09:00,0.8,���쓌,2.1,�쓌,5.7,92.9,0,0,0,0
2023-11-20T00:23:00+09:00,0.6,���쓌,1.4,��,5.7,93.2,0,0,0,0
2023-11-20T00:24:00+09:00,0.6,���쓌,1.2,��,5.7,93.2,0,0,0,0
2023-11-20T00:25:00+09:00,0.6,��,1.2,��,5.7,92.8,0,0,0,0
2023-11-20T00:26:00+09:00,0.7,��,1.2,��,5.6,92.6,0,0,0,0
2023-11-20T00:27:00+09:00,0.7,��,1.4,�k�k��,5.5,92.5,0,0,0,0
2023-11-20T00:28:00+09:00,0.7,���k��,1.4,�k�k��,5.5,92.6,0,0,0,0
2023-11-20T00:29:00+09:00,0.7,���k��,1.5,�k�k��,5.5,92.6,0,0,0,0
2023-11-20T00:30:00+09:00,0.8,�k��,1.5,�k�k��,5.5,92.7,0,0,0,0
2023-11-20T00:31:00+09:00,0.9,�k��,1.5,�k�k��,5.5,92.7,0,0,0,0
2023-11-20T00:32:00+09:00,0.8,�k�k��,1.5,�k�k��,5.5,92.6,0,0,0,0
2023-11-20T00:33:00+09:00,0.9,�k�k��,1.5,�k�k��,5.4,92.6,0,0,0,0
2023-11-20T00:34:00+09:00,0.8,�k�k��,1.5,�k�k��,5.4,92.6,0,0,0,0
2023-11-20T00:35:00+09:00,0.8,�k�k��,1.5,�k�k��,5.4,92.8,0,0,0,0
2023-11-20T00:36:00+09:00,0.7,�k��,1.5,�k�k��,5.5,92.9,0,0,0,0
2023-11-20T00:37:00+09:00,0.6,�k��,1.5,�k�k��,5.5,92.9,0,0,0,0
2023-11-20T00:38:00+09:00,0.5,�k��,1.5,�k�k��,5.6,93.1,0,0,0,0
2023-11-20T00:39:00+09:00,0.4,���k��,1.3,�k��,5.7,93.7,0,0,0,0
2023-11-20T00:40:00+09:00,0.4,��,1,��쓌,5.7,93.4,0,0,0,0
2023-11-20T00:41:00+09:00,0.3,���쓌,1,��쓌,5.7,93.1,0,0,0,0
2023-11-20T00:42:00+09:00,0.3,���쓌,1,��쓌,5.7,93.1,0,0,0,0
2023-11-20T00:43:00+09:00,0.4,���쓌,1.1,���쓌,5.7,93.2,0,0,0,0
2023-11-20T00:44:00+09:00,0.4,�쓌,1.1,���쓌,5.7,93.1,0,0,0,0
2023-11-20T00:45:00+09:00,0.5,�쓌,1.1,���쓌,5.7,93,0,0,0,0
2023-11-20T00:46:00+09:00,0.5,�쓌,1.1,���쓌,5.7,92.9,0,0,0,0
2023-11-20T00:47:00+09:00,0.6,�쓌,1.1,���쓌,5.8,93.1,0,0,0,0
2023-11-20T00:48:00+09:00,0.6,���쓌,1.1,���쓌,5.8,93.3,0,0,0,0
2023-11-20T00:49:00+09:00,0.6,���쓌,1.1,���쓌,5.8,93.1,0,0,0,0
2023-11-20T00:50:00+09:00,0.6,���쓌,1.1,���쓌,5.8,92.9,0,0,0,0
2023-11-20T00:51:00+09:00,0.6,���쓌,1.1,���쓌,5.8,92.8,0,0,0,0
2023-11-20T00:52:00+09:00,0.7,���쓌,1.1,���쓌,5.8,92.9,0,0,0,0
2023-11-20T00:53:00+09:00,0.6,��,1.1,��,5.8,92.8,0,0,0,0
2023-11-20T00:54:00+09:00,0.6,��,1.1,��,5.8,92.8,0,0,0,0
2023-11-20T00:55:00+09:00,0.6,��,1.1,��,5.8,92.7,0,0,0,0
2023-11-20T00:56:00+09:00,0.6,��,1.1,��,5.7,92.6,0,0,0,0
2023-11-20T00:57:00+09:00,0.6,��,1.2,���k��,5.7,92.6,0,0,0,0
2023-11-20T00:58:00+09:00,0.6,��,1.2,���k��,5.7,92.6,0,0,0,0
2023-11-20T00:59:00+09:00,0.7,���k��,1.3,���k��,5.7,92.6,0,0,0,0
2023-11-20T01:00:00+09:00,0.8,���k��,1.3,���k��,5.7,92.7,0,0,0,0
2023-11-20T01:01:00+09:00,0.8,���k��,1.3,���k��,5.7,92.8,0,0,0,0
2023-11-20T01:02:00+09:00,0.8,���k��,1.3,���k��,5.8,92.8,0,0,0,0
2023-11-20T01:03:00+09:00,0.8,���k��,1.3,���k��,5.8,92.8,0,0,0,0
2023-11-20T01:04:00+09:00,0.8,���k��,1.3,���k��,5.8,92.9,0,0,0,0
2023-11-20T01:05:00+09:00,0.9,��,1.6,���쓌,5.8,92.9,0,0,0,0
2023-11-20T01:06:00+09:00,1,��,1.7,�쓌,5.8,92.9,0,0,0,0
2023-11-20T01:07:00+09:00,1,��,1.7,�쓌,5.8,92.8,0,0,0,0
2023-11-20T01:08:00+09:00,1,��,1.7,�쓌,5.8,92.7,0,0,0,0
2023-11-20T01:09:00+09:00,1,���쓌,1.7,�쓌,5.9,92.8,0,0,0,0
2023-11-20T01:10:00+09:00,1,���쓌,1.7,�쓌,5.9,93,0,0,0,0
2023-11-20T01:11:00+09:00,0.9,���쓌,1.7,�쓌,5.9,92.9,0,0,0,0
2023-11-20T01:12:00+09:00,0.9,���쓌,1.7,�쓌,6.1,93.7,0,0,0,0
2023-11-20T01:13:00+09:00,0.8,���쓌,1.7,�쓌,6.2,93.4,0,0,0,0
2023-11-20T01:14:00+09:00,0.7,���쓌,1.7,�쓌,6.1,92.8,0,0,0,0
2023-11-20T01:15:00+09:00,0.6,���쓌,1.7,�쓌,6,92.7,0,0,0,0
2023-11-20T01:16:00+09:00,0.5,���쓌,1.4,���쓌,6,92.5,0,0,0,0
2023-11-20T01:17:00+09:00,0.4,���쓌,1.3,���쓌,6,92.6,0,0,0,0
2023-11-20T01:18:00+09:00,0.3,���쓌,1.2,���쓌,6,92.4,0,0,0,0
2023-11-20T01:19:00+09:00,0.3,���쓌,0.7,��,5.9,92.4,0,0,0,0
2023-11-20T01:20:00+09:00,0.2,�É�,0.7,��,6,92.6,0,0,0,0
2023-11-20T01:21:00+09:00,0.3,��,0.7,��,5.9,92.4,0,0,0,0
2023-11-20T01:22:00+09:00,0.3,��,0.7,��,5.9,92.2,0,0,0,0
2023-11-20T01:23:00+09:00,0.3,���k��,0.7,�k��,5.9,92.4,0,0,0,0
2023-11-20T01:24:00+09:00,0.2,�É�,0.7,�k��,5.9,92.3,0,0,0,0
2023-11-20T01:25:00+09:00,0.2,�É�,0.7,�k��,5.9,92.6,0,0,0,0
2023-11-20T01:26:00+09:00,0.2,�É�,0.7,�k��,5.9,92.5,0,0,0,0
2023-11-20T01:27:00+09:00,0.2,�É�,0.7,�k��,5.9,92.5,0,0,0,0
2023-11-20T01:28:00+09:00,0.3,�k�k��,0.9,�k,5.9,92.4,0,0,0,0
2023-11-20T01:29:00+09:00,0.3,�k�k��,1,�k,5.9,92.6,0,0,0,0
2023-11-20T01:30:00+09:00,0.5,�k�k��,1.5,�k,5.9,92.7,0,0,0,0
2023-11-20T01:31:00+09:00,0.5,�k�k��,1.5,�k,5.9,92.7,0,0,0,0
2023-11-20T01:32:00+09:00,0.6,�k�k��,1.5,�k,6,92.6,0,0,0,0
2023-11-20T01:33:00+09:00,0.6,�k,1.5,�k,6,92.7,0,0,0,0
2023-11-20T01:34:00+09:00,0.7,�k�k��,1.5,�k,5.9,92.7,0,0,0,0
2023-11-20T01:35:00+09:00,0.7,�k�k��,1.5,�k,5.9,92.7,0,0,0,0
2023-11-20T01:36:00+09:00,0.8,�k�k��,1.8,�쓌,6,92.9,0,0,0,0
2023-11-20T01:37:00+09:00,0.9,�k��,1.8,�쓌,6,93.1,0,0,0,0
2023-11-20T01:38:00+09:00,1,�k��,2,�쓌,6.1,93,0,0,0,0
2023-11-20T01:39:00+09:00,1,���k��,2,�쓌,6.1,93,0,0,0,0
2023-11-20T01:40:00+09:00,1,���k��,2,�쓌,6.1,92.9,0,0,0,0
2023-11-20T01:41:00+09:00,1,��,2,�쓌,6.1,92.8,0,0,0,0
2023-11-20T01:42:00+09:00,1,��,2,�쓌,6.1,92.8,0,0,0,0
2023-11-20T01:43:00+09:00,1,��,2,�쓌,6.1,92.8,0,0,0,0
2023-11-20T01:44:00+09:00,1,��,2,�쓌,6.1,92.8,0,0,0,0
2023-11-20T01:45:00+09:00,1,��,2,�쓌,6.1,92.8,0,0,0,0
2023-11-20T01:46:00+09:00,1,��,2,�쓌,6.1,92.8,0,0,0,0
2023-11-20T01:47:00+09:00,1,��,2,�쓌,6.2,92.9,0,0,0,0
2023-11-20T01:48:00+09:00,1,���k��,1.9,���k��,6.3,93.1,0,0,0,0
2023-11-20T01:49:00+09:00,1,���k��,1.9,���k��,6.3,93.2,0,0,0,0
2023-11-20T01:50:00+09:00,1,���k��,2.2,��,6.3,93,0,0,0,0
2023-11-20T01:51:00+09:00,1.1,��,2.2,��,6.3,93,0,0,0,0
2023-11-20T01:52:00+09:00,1.2,��,2.4,���쓌,6.3,92.9,0,0,0,0
2023-11-20T01:53:00+09:00,1.3,��,2.7,��,6.3,92.7,0,0,0,0
2023-11-20T01:54:00+09:00,1.4,��,2.7,��,6.4,92.7,0,0,0,0
2023-11-20T01:55:00+09:00,1.4,��,2.7,��,6.4,92.8,0,0,0,0
2023-11-20T01:56:00+09:00,1.4,��,2.7,��,6.4,92.7,0,0,0,0
2023-11-20T01:57:00+09:00,1.4,��,2.7,��,6.4,92.5,0,0,0,0
2023-11-20T01:58:00+09:00,1.4,��,2.7,��,6.4,92.5,0,0,0,0
2023-11-20T01:59:00+09:00,1.5,��,2.7,��,6.3,92.5,0,0,0,0
2023-11-20T02:00:00+09:00,1.4,��,2.7,��,6.4,92.3,0,0,0,0
2023-11-20T02:01:00+09:00,1.3,���k��,2.7,��,6.4,92.4,0,0,0,0
2023-11-20T02:02:00+09:00,1.2,���k��,2.7,��,6.3,92.3,0,0,0,0
2023-11-20T02:03:00+09:00,1.1,���k��,2.3,���k��,6.3,92.2,0,0,0,0
2023-11-20T02:04:00+09:00,1.1,���k��,2.3,���k��,6.3,92.2,0,0,0,0
2023-11-20T02:05:00+09:00,1,���k��,2.3,���k��,6.3,92.3,0,0,0,0
2023-11-20T02:06:00+09:00,1.1,���k��,2.3,���k��,6.4,92.4,0,0,0,0
2023-11-20T02:07:00+09:00,1.1,���k��,2.3,���k��,6.4,92.3,0,0,0,0
2023-11-20T02:08:00+09:00,1.1,��,2.3,���k��,6.4,92.2,0,0,0,0
2023-11-20T02:09:00+09:00,1.1,��,2.5,���쓌,6.4,92.2,0,0,0,0
2023-11-20T02:10:00+09:00,1.3,��,3,���쓌,6.4,92.1,0,0,0,0
2023-11-20T02:11:00+09:00,1.4,���쓌,3,���쓌,6.4,92.1,0,0,0,0
2023-11-20T02:12:00+09:00,1.4,���쓌,3,���쓌,6.5,92.2,0,0,0,0
2023-11-20T02:13:00+09:00,1.4,���쓌,3,���쓌,6.5,92.3,0,0,0,0
2023-11-20T02:14:00+09:00,1.4,�쓌,3,���쓌,6.5,92.2,0,0,0,0
2023-11-20T02:15:00+09:00,1.3,�쓌,3,���쓌,6.6,92.2,0,0,0,0
2023-11-20T02:16:00+09:00,1.2,�쓌,3,���쓌,6.6,92.2,0,0,0,0
2023-11-20T02:17:00+09:00,1.1,���쓌,3,���쓌,6.6,91.8,0,0,0,0
2023-11-20T02:18:00+09:00,0.9,�쓌,3,���쓌,6.7,91.9,0,0,0,0
2023-11-20T02:19:00+09:00,0.8,���쓌,3,���쓌,6.8,92,0,0,0,0
2023-11-20T02:20:00+09:00,0.6,�쓌,2.6,���쓌,6.7,91.6,0,0,0,0
2023-11-20T02:21:00+09:00,0.5,�쓌,1.5,�쓌,6.6,91,0,0,0,0
2023-11-20T02:22:00+09:00,0.5,�쓌,1.8,��,6.7,91.5,0,0,0,0
2023-11-20T02:23:00+09:00,0.5,��쓌,2.2,��,6.7,91.3,0,0,0,0
2023-11-20T02:24:00+09:00,0.6,�쓌,2.2,��,6.7,91.4,0,0,0,0
2023-11-20T02:25:00+09:00,0.7,�쓌,2.2,��,6.8,91.2,0,0,0,0
2023-11-20T02:26:00+09:00,0.7,��쓌,2.2,��,6.6,90.6,0,0,0,0
2023-11-20T02:27:00+09:00,0.8,�쓌,2.2,��,6.5,90.2,0,0,0,0
2023-11-20T02:28:00+09:00,1,��,2.5,�k,6.4,90.4,0,0,0,0
2023-11-20T02:29:00+09:00,1.2,��,3.6,�k�k��,6.5,90.4,0,0,0,0
2023-11-20T02:30:00+09:00,1.4,�k��,3.6,�k�k��,6.5,90.6,0,0,0,0
2023-11-20T02:31:00+09:00,1.6,�k��,3.6,�k�k��,6.4,90.4,0,0,0,0
2023-11-20T02:32:00+09:00,1.7,�k�k��,3.6,�k�k��,6.3,90.1,0,0,0,0
2023-11-20T02:33:00+09:00,1.7,�k�k��,3.6,�k�k��,6.3,90.2,0,0,0,0
2023-11-20T02:34:00+09:00,1.8,�k,3.6,�k�k��,6.3,90.3,0,0,0,0
2023-11-20T02:35:00+09:00,1.8,�k,3.6,�k�k��,6.2,90.1,0,0,0,0
2023-11-20T02:36:00+09:00,1.8,�k,3.6,�k�k��,6.2,90.2,0,0,0,0
2023-11-20T02:37:00+09:00,1.8,�k,3.6,�k�k��,6.2,90.4,0,0,0,0
2023-11-20T02:38:00+09:00,1.7,�k,3.6,�k�k��,6.2,90.7,0,0,0,0
2023-11-20T02:39:00+09:00,1.6,�k,3.3,�k��,6.2,90.8,0,0,0,0
2023-11-20T02:40:00+09:00,1.5,�k,3,�k�k��,6.2,90.9,0,0,0,0
2023-11-20T02:41:00+09:00,1.4,�쓌,2.9,��,6.4,91.4,0,0,0,0
2023-11-20T02:42:00+09:00,1.3,��,2.9,��,6.5,91.8,0,0,0,0
2023-11-20T02:43:00+09:00,1.2,��,2.9,��,6.7,92.3,0,0,0,0
2023-11-20T02:44:00+09:00,1.2,��,2.9,��,7,92.9,0,0,0,0
2023-11-20T02:45:00+09:00,1.2,��,2.9,��,6.9,91.7,0,0,0,0
2023-11-20T02:46:00+09:00,1.3,��,2.9,��,6.8,90.9,0,0,0,0
2023-11-20T02:47:00+09:00,1.4,��,3.1,�쐼,7.1,91.8,0,0,0,0
2023-11-20T02:48:00+09:00,1.5,��,3.1,�쐼,7.4,92.4,0,0,0,0
2023-11-20T02:49:00+09:00,1.5,��쐼,5.3,�쐼,7.5,91.3,0,0,0,0
2023-11-20T02:50:00+09:00,1.6,��쐼,5.4,��쐼,8,93,0,0,0,0
2023-11-20T02:51:00+09:00,1.9,�쐼,7.2,���쐼,8.4,92.4,0,0,0,0
2023-11-20T02:52:00+09:00,2,�쐼,7.2,���쐼,8.8,93.1,0,0,0,0
2023-11-20T02:53:00+09:00,2.3,�쐼,7.2,���쐼,9.4,92.7,0,0,0,0
2023-11-20T02:54:00+09:00,2.4,�쐼,7.2,���쐼,9.9,91.5,0,0,0,0
2023-11-20T02:55:00+09:00,2.6,�쐼,7.2,���쐼,10.2,88.1,0,0,0,0
2023-11-20T02:56:00+09:00,2.9,�쐼,7.2,���쐼,10.4,83.9,0,0,0,0
2023-11-20T02:57:00+09:00,3,���쐼,7.2,���쐼,10.4,79.1,0,0,0,0
2023-11-20T02:58:00+09:00,3.1,�쐼,7.2,���쐼,10.2,74.8,0,0,0,0
2023-11-20T02:59:00+09:00,3,���쐼,7.2,���쐼,10,72.5,0,0,0,0
2023-11-20T03:00:00+09:00,3,���쐼,7.2,���쐼,9.5,70,0,0,0,0
2023-11-20T03:01:00+09:00,2.9,���쐼,6.9,��쐼,9.8,72.8,0,0,0,0
2023-11-20T03:02:00+09:00,3.1,���쐼,6.9,��쐼,10.1,73.4,0,0,0,0
2023-11-20T03:03:00+09:00,3,���쐼,6.9,��쐼,10.6,72.9,0,0,0,0
2023-11-20T03:04:00+09:00,3,���쐼,6.9,��쐼,10.7,70,0,0,0,0
2023-11-20T03:05:00+09:00,2.9,���쐼,6.9,��쐼,10.7,68.6,0,0,0,0
2023-11-20T03:06:00+09:00,2.8,���쐼,6.3,�쐼,10.7,67.3,0,0,0,0
2023-11-20T03:07:00+09:00,2.9,�쐼,6.3,�쐼,10.7,66.7,0,0,0,0
2023-11-20T03:08:00+09:00,3.1,�쐼,6.3,�쐼,10.8,65.9,0,0,0,0
2023-11-20T03:09:00+09:00,3.2,�쐼,6.3,�쐼,10.9,65.4,0,0,0,0
2023-11-20T03:10:00+09:00,3.3,�쐼,6.3,�쐼,10.9,64.7,0,0,0,0
2023-11-20T03:11:00+09:00,3.5,�쐼,6.7,��쐼,10.9,64.4,0,0,0,0
2023-11-20T03:12:00+09:00,3.4,�쐼,6.7,��쐼,11,64,0,0,0,0
2023-11-20T03:13:00+09:00,3.6,�쐼,8.1,��쐼,11.1,63.6,0,0,0,0
2023-11-20T03:14:00+09:00,3.9,��쐼,8.9,��쐼,11.2,63.1,0,0,0,0
2023-11-20T03:15:00+09:00,4,��쐼,8.9,��쐼,11.2,62.7,0,0,0,0
2023-11-20T03:16:00+09:00,4.2,��쐼,9.4,�쐼,11.2,62.4,0,0,0,0
2023-11-20T03:17:00+09:00,4.1,�쐼,9.4,�쐼,11.3,62.6,0,0,0,0
2023-11-20T03:18:00+09:00,4.1,�쐼,9.4,�쐼,11.3,62.1,0,0,0,0
2023-11-20T03:19:00+09:00,4,�쐼,9.4,�쐼,11.2,61.7,0,0,0,0
2023-11-20T03:20:00+09:00,3.7,��쐼,9.4,�쐼,11.1,61.4,0,0,0,0
2023-11-20T03:21:00+09:00,3.4,�쐼,9.4,�쐼,11.1,62.3,0,0,0,0
2023-11-20T03:22:00+09:00,3.1,�쐼,9.4,�쐼,11.1,62.7,0,0,0,0
2023-11-20T03:23:00+09:00,2.7,�쐼,9.4,�쐼,11,62.7,0,0,0,0
2023-11-20T03:24:00+09:00,2.2,�쐼,9.4,�쐼,10.4,62.2,0,0,0,0
2023-11-20T03:25:00+09:00,2.1,���쐼,9.4,�쐼,10.4,64.3,0,0,0,0
2023-11-20T03:26:00+09:00,1.7,���쐼,5.5,�쐼,10.4,66,0,0,0,0
2023-11-20T03:27:00+09:00,1.5,��,5.5,�쐼,10.2,65.6,0,0,0,0
2023-11-20T03:28:00+09:00,1.5,��,4.4,��,10.2,66.8,0,0,0,0
2023-11-20T03:29:00+09:00,1.4,���k��,4.4,��,10.2,67,0,0,0,0
2023-11-20T03:30:00+09:00,1.4,���k��,5.1,�쐼,10.1,67.4,0,0,0,0
2023-11-20T03:31:00+09:00,1.6,���k��,5.6,��,10.2,68.4,0,0,0,0
2023-11-20T03:32:00+09:00,1.8,���k��,5.6,��,10.5,69.2,0,0,0,0
2023-11-20T03:33:00+09:00,1.9,���k��,5.6,��,10.6,68.3,0,0,0,0
2023-11-20T03:34:00+09:00,1.9,���k��,5.6,��,10.4,67.1,0,0,0,0
2023-11-20T03:35:00+09:00,1.9,��,5.6,��,10.2,67.2,0,0,0,0
2023-11-20T03:36:00+09:00,2,��,5.7,��,10.4,68.6,0,0,0,0
2023-11-20T03:37:00+09:00,1.9,��,5.7,��,10.5,68.8,0,0,0,0
2023-11-20T03:38:00+09:00,1.8,��,5.7,��,10.4,67.8,0,0,0,0
2023-11-20T03:39:00+09:00,1.9,��,5.7,��,10.3,68,0,0,0,0
2023-11-20T03:40:00+09:00,2.1,��,5.7,��,10.5,69,0,0,0,0
2023-11-20T03:41:00+09:00,2,��,5.7,��,10.6,69.3,0,0,0,0
2023-11-20T03:42:00+09:00,1.9,��,5.7,��,10.6,68.3,0,0,0,0
2023-11-20T03:43:00+09:00,1.8,��,5.7,��,10.4,67.3,0,0,0,0
2023-11-20T03:44:00+09:00,1.9,��,5.7,��,10.2,67.5,0,0,0,0
2023-11-20T03:45:00+09:00,2.2,��,5.7,��,10.3,68.7,0,0,0,0
2023-11-20T03:46:00+09:00,2.4,��,6.2,���쐼,10.6,69.7,0,0,0,0
2023-11-20T03:47:00+09:00,2.8,��,8.1,���쐼,10.7,69,0,0,0,0
2023-11-20T03:48:00+09:00,3.1,��,8.1,���쐼,10.9,68.4,0,0,0,0
2023-11-20T03:49:00+09:00,3.2,���쐼,8.1,���쐼,11,67.4,0,0,0,0
2023-11-20T03:50:00+09:00,3.2,���쐼,8.1,���쐼,11.1,66.4,0,0,0,0
2023-11-20T03:51:00+09:00,3.2,���쐼,8.1,���쐼,11.2,65.5,0,0,0,0
2023-11-20T03:52:00+09:00,3.4,���쐼,8.1,���쐼,11.2,64.7,0,0,0,0
2023-11-20T03:53:00+09:00,3.8,���쐼,8.1,���쐼,11.3,64.2,0,0,0,0
2023-11-20T03:54:00+09:00,3.8,���쐼,8.1,���쐼,11.3,63.3,0,0,0,0
2023-11-20T03:55:00+09:00,3.7,���쐼,8.1,���쐼,11.2,63.1,0,0,0,0
2023-11-20T03:56:00+09:00,3.7,���쐼,8.1,���쐼,11.2,63.5,0,0,0,0
2023-11-20T03:57:00+09:00,3.5,���쐼,7,��쐼,11.2,63.8,0,0,0,0
2023-11-20T03:58:00+09:00,3.3,���쐼,6.2,�쐼,11.2,64.1,0,0,0,0
2023-11-20T03:59:00+09:00,3.2,���쐼,6.2,�쐼,11.1,64.2,0,0,0,0
2023-11-20T04:00:00+09:00,3.2,���쐼,6.2,�쐼,11,64.8,0,0,0,0
2023-11-20T04:01:00+09:00,3.1,���쐼,6.2,�쐼,10.7,64.6,0,0,0,0
2023-11-20T04:02:00+09:00,3,��,6.2,�쐼,10.3,64.7,0,0,0,0
2023-11-20T04:03:00+09:00,2.9,��,6.1,���쐼,9.9,65.5,0,0,0,0
2023-11-20T04:04:00+09:00,3.1,��,6.1,���쐼,9.7,67,0,0,0,0
2023-11-20T04:05:00+09:00,3.3,���k��,6.1,���쐼,9.7,68.7,0,0,0,0
2023-11-20T04:06:00+09:00,3.2,���k��,5.7,���쐼,9.9,70,0,0,0,0
2023-11-20T04:07:00+09:00,3.1,���k��,5.6,�k��,10.1,70.3,0,0,0,0
2023-11-20T04:08:00+09:00,2.9,�k��,5.6,�k��,10.1,69.7,0,0,0,0
2023-11-20T04:09:00+09:00,2.7,�k��,5.6,�k��,10,68.6,0,0,0,0
2023-11-20T04:10:00+09:00,2.7,�k��,5.6,�k��,9.9,69.2,0,0,0,0
2023-11-20T04:11:00+09:00,2.8,�k��,5.6,�k��,10,69.6,0,0,0,0
2023-11-20T04:12:00+09:00,2.7,�k�k��,5.6,�k��,10.1,69.3,0,0,0,0
2023-11-20T04:13:00+09:00,2.4,�k�k��,5,�k��,10,69,0,0,0,0
2023-11-20T04:14:00+09:00,2,�k�k��,4.9,�k,10,68.8,0,0,0,0
2023-11-20T04:15:00+09:00,1.7,�k,4.9,�k,10,68.6,0,0,0,0
2023-11-20T04:16:00+09:00,1.4,�k,4.7,�k,10,68.8,0,0,0,0
2023-11-20T04:17:00+09:00,1.3,�k�k��,3.3,�k,10,68.8,0,0,0,0
2023-11-20T04:18:00+09:00,1.2,�k,3.3,�k,10.1,69.1,0,0,0,0
2023-11-20T04:19:00+09:00,1.2,�k,3.3,�k,10.2,69.4,0,0,0,0
2023-11-20T04:20:00+09:00,1,�k�k��,3,�k,10.1,68.9,0,0,0,0
2023-11-20T04:21:00+09:00,0.8,���k��,2.1,�k�k��,9.8,68.1,0,0,0,0
2023-11-20T04:22:00+09:00,0.7,��,1.5,�k,9.7,68.5,0,0,0,0
2023-11-20T04:23:00+09:00,0.7,���쓌,1.4,��쓌,9.7,69.3,0,0,0,0
2023-11-20T04:24:00+09:00,0.7,��,1.4,��쓌,9.7,69.8,0,0,0,0
2023-11-20T04:25:00+09:00,0.7,���k��,1.3,���k��,9.6,69.9,0,0,0,0
2023-11-20T04:26:00+09:00,0.6,���k��,1.3,���k��,9.5,70,0,0,0,0
2023-11-20T04:27:00+09:00,0.6,���k��,1.3,���k��,9.5,70.7,0,0,0,0
2023-11-20T04:28:00+09:00,0.6,���k��,1.3,���k��,9.5,71.3,0,0,0,0
2023-11-20T04:29:00+09:00,0.5,��,1.3,���k��,9.5,71.7,0,0,0,0
2023-11-20T04:30:00+09:00,0.5,��,1.3,���k��,9.5,72.1,0,0,0,0
2023-11-20T04:31:00+09:00,0.5,���쓌,1.6,��쓌,9.5,72.2,0,0,0,0
2023-11-20T04:32:00+09:00,0.6,���쓌,1.8,��쓌,9.2,71.4,0,0,0,0
2023-11-20T04:33:00+09:00,0.6,�쓌,1.8,��쓌,9,72,0,0,0,0
2023-11-20T04:34:00+09:00,0.7,��쓌,2.5,��,8.8,72.9,0,0,0,0
2023-11-20T04:35:00+09:00,0.8,��쓌,2.5,��,8.7,73.7,0,0,0,0
2023-11-20T04:36:00+09:00,1,��쓌,2.5,��,8.7,74.5,0,0,0,0
2023-11-20T04:37:00+09:00,1.2,��,3.4,��쐼,8.7,75.3,0,0,0,0
2023-11-20T04:38:00+09:00,1.4,��,3.4,��쐼,8.7,75.8,0,0,0,0
2023-11-20T04:39:00+09:00,1.6,��,3.4,��쐼,9.1,77.3,0,0,0,0
2023-11-20T04:40:00+09:00,1.8,��,4,��쓌,9.2,76.9,0,0,0,0
2023-11-20T04:41:00+09:00,1.9,��,4.4,��쓌,9.4,76.6,0,0,0,0
2023-11-20T04:42:00+09:00,2.1,��,5.4,��쓌,9.5,76,0,0,0,0
2023-11-20T04:43:00+09:00,2.3,��,5.4,��쓌,9.8,75.9,0,0,0,0
2023-11-20T04:44:00+09:00,2.2,��,5.4,��쓌,9.6,73.3,0,0,0,0
2023-11-20T04:45:00+09:00,2.2,��쐼,5.4,��쓌,9.1,71.6,0,0,0,0
2023-11-20T04:46:00+09:00,2.3,��쐼,5.4,��쓌,8.6,70.9,0,0,0,0
2023-11-20T04:47:00+09:00,2.4,�쐼,5.4,��쓌,8.3,71.9,0,0,0,0
2023-11-20T04:48:00+09:00,2.5,�k��,5.4,��쓌,8.2,73.8,0,0,0,0
2023-11-20T04:49:00+09:00,2.5,�k,5.4,��쓌,8.1,75.2,0,0,0,0
2023-11-20T04:50:00+09:00,2.5,�k,5.4,��쓌,8,76.4,0,0,0,0
2023-11-20T04:51:00+09:00,2.4,�k,5.4,��쓌,8,77.4,0,0,0,0
2023-11-20T04:52:00+09:00,2.3,�k,4.2,�쐼,8.1,78.6,0,0,0,0
2023-11-20T04:53:00+09:00,2.1,�k�k��,3.7,�k�k��,8.2,79.4,0,0,0,0
2023-11-20T04:54:00+09:00,2.2,�k�k��,3.7,�k�k��,8.2,79.1,0,0,0,0
2023-11-20T04:55:00+09:00,2,�k��,3.7,�k�k��,8,78.5,0,0,0,0
2023-11-20T04:56:00+09:00,1.8,�k��,3.7,�k�k��,7.9,78.7,0,0,0,0
2023-11-20T04:57:00+09:00,1.7,���k��,3.7,�k�k��,8,79.5,0,0,0,0
2023-11-20T04:58:00+09:00,1.5,��,3.2,�k�k��,7.9,79.9,0,0,0,0
2023-11-20T04:59:00+09:00,1.5,���쓌,3.2,�k�k��,8,80.4,0,0,0,0
2023-11-20T05:00:00+09:00,1.3,���쓌,2.5,���쓌,8.3,81.2,0,0,0,0
2023-11-20T05:01:00+09:00,1.2,���쓌,2.5,���쓌,8.4,81.1,0,0,0,0
2023-11-20T05:02:00+09:00,1.1,�쓌,2.5,���쓌,8.2,80.2,0,0,0,0
2023-11-20T05:03:00+09:00,1,�쓌,2.5,���쓌,8.1,79.2,0,0,0,0
2023-11-20T05:04:00+09:00,1,���쓌,2.5,���쓌,8,79.3,0,0,0,0
2023-11-20T05:05:00+09:00,1.1,��,2.5,���쓌,7.9,79.6,0,0,0,0
2023-11-20T05:06:00+09:00,1.1,���k��,2.5,���쓌,8,79.9,0,0,0,0
2023-11-20T05:07:00+09:00,1,���k��,2.5,���쓌,8.1,80.7,0,0,0,0
2023-11-20T05:08:00+09:00,1,���k��,2.5,���쓌,8.1,80.6,0,0,0,0
2023-11-20T05:09:00+09:00,0.9,�k��,2,�k�k��,8.2,80.5,0,0,0,0
2023-11-20T05:10:00+09:00,1,���k��,2.7,���쓌,7.9,79.6,0,0,0,0
2023-11-20T05:11:00+09:00,1.2,���k��,2.7,���쓌,7.8,79.3,0,0,0,0
2023-11-20T05:12:00+09:00,1.2,���k��,2.7,���쓌,7.7,79.9,0,0,0,0
2023-11-20T05:13:00+09:00,1.2,��,2.7,���쓌,7.6,80.1,0,0,0,0
2023-11-20T05:14:00+09:00,1.1,��,2.7,���쓌,7.7,80.8,0,0,0,0
2023-11-20T05:15:00+09:00,1.1,���쓌,2.7,���쓌,7.6,81,0,0,0,0
2023-11-20T05:16:00+09:00,1.1,�쓌,2.7,���쓌,7.6,81.3,0,0,0,0
2023-11-20T05:17:00+09:00,1,�쓌,2.7,���쓌,7.6,81.9,0,0,0,0
2023-11-20T05:18:00+09:00,1,��쓌,2.7,���쓌,7.6,82.1,0,0,0,0
2023-11-20T05:19:00+09:00,1,��,2.7,���쓌,7.6,82.4,0,0,0,0
2023-11-20T05:20:00+09:00,0.9,��쐼,2.7,���쓌,7.7,82.5,0,0,0,0
2023-11-20T05:21:00+09:00,0.8,�쐼,1.5,��쐼,7.6,82.4,0,0,0,0
2023-11-20T05:22:00+09:00,0.8,���쐼,1.5,��쐼,7.7,82.9,0,0,0,0
2023-11-20T05:23:00+09:00,0.8,���쐼,1.5,��쐼,7.7,83.2,0,0,0,0
2023-11-20T05:24:00+09:00,0.8,���쐼,1.5,��쐼,7.7,82.6,0,0,0,0
2023-11-20T05:25:00+09:00,0.7,���쐼,1.4,��,7.5,82,0,0,0,0
2023-11-20T05:26:00+09:00,0.7,��,1.4,��,7.4,81.8,0,0,0,0
2023-11-20T05:27:00+09:00,0.9,��,2.1,�k,7.3,82.2,0,0,0,0
2023-11-20T05:28:00+09:00,0.9,���k��,2.2,�k,7.2,82,0,0,0,0
2023-11-20T05:29:00+09:00,0.8,���k��,2.2,�k,7,82,0,0,0,0
2023-11-20T05:30:00+09:00,0.7,��,2.2,�k,7,82.7,0,0,0,0
2023-11-20T05:31:00+09:00,0.7,���k��,2.2,�k,7,83.3,0,0,0,0
2023-11-20T05:32:00+09:00,0.8,�k��,2.2,�k,7,83.9,0,0,0,0
2023-11-20T05:33:00+09:00,0.8,�k�k��,2.2,�k,7,84.1,0,0,0,0
2023-11-20T05:34:00+09:00,0.9,�k�k��,2.2,�k,7,84.2,0,0,0,0
2023-11-20T05:35:00+09:00,0.9,�k��,2.2,�k,6.9,84.2,0,0,0,0
2023-11-20T05:36:00+09:00,0.9,���k��,2.2,�k,6.9,84.8,0,0,0,0
2023-11-20T05:37:00+09:00,0.8,��,2.2,�k,6.9,84.8,0,0,0,0
2023-11-20T05:38:00+09:00,0.7,��,1.8,�k��,6.9,85.2,0,0,0,0
2023-11-20T05:39:00+09:00,0.8,��,1.8,�k��,6.9,85.3,0,0,0,0
2023-11-20T05:40:00+09:00,0.8,��,1.8,�k��,7,85.9,0,0,0,0
2023-11-20T05:41:00+09:00,0.7,��,1.8,�k��,7,86.2,0,0,0,0
2023-11-20T05:42:00+09:00,0.7,��,1.5,���k��,7.1,86.5,0,0,0,0
2023-11-20T05:43:00+09:00,0.6,���쓌,1.5,���k��,7.2,86.3,0,0,0,0
2023-11-20T05:44:00+09:00,0.5,���쓌,1.2,��,7.2,86.4,0,0,0,0
2023-11-20T05:45:00+09:00,0.5,�쓌,1.2,��,7.2,86.4,0,0,0,0
2023-11-20T05:46:00+09:00,0.6,�쓌,2,���k��,7.5,87.4,0,0,0,0
2023-11-20T05:47:00+09:00,0.7,�쓌,3.1,���쐼,7.8,87.7,0,0,0,0
2023-11-20T05:48:00+09:00,0.6,��쓌,3.1,���쐼,7.7,87.1,0,0,0,0
2023-11-20T05:49:00+09:00,0.7,�쓌,3.1,���쐼,7.5,85.4,0,0,0,0
2023-11-20T05:50:00+09:00,0.7,���쓌,3.1,���쐼,7.1,83.9,0,0,0,0
2023-11-20T05:51:00+09:00,0.8,���쓌,3.1,���쐼,7,83.8,0,0,0,0
2023-11-20T05:52:00+09:00,0.8,���k��,3.1,���쐼,6.9,84.4,0,0,0,0
2023-11-20T05:53:00+09:00,1,�k��,3.1,���쐼,6.9,84.3,0,0,0,0
2023-11-20T05:54:00+09:00,1.1,�k�k��,3.1,���쐼,6.7,84.4,0,0,0,0
2023-11-20T05:55:00+09:00,1.2,�k�k��,3.1,���쐼,6.6,84.6,0,0,0,0
2023-11-20T05:56:00+09:00,1.2,�k�k��,3.1,���쐼,6.6,85.1,0,0,0,0
2023-11-20T05:57:00+09:00,1.1,�k�k��,2.2,�k,6.6,85.8,0,0,0,0
2023-11-20T05:58:00+09:00,1.1,�k,2.2,�k,6.8,86.9,0,0,0,0
2023-11-20T05:59:00+09:00,1.1,�k,2.2,�k,7,87.4,0,0,0,0
2023-11-20T06:00:00+09:00,1.1,�k,2.2,�k,7.2,88,0,0,0,0
2023-11-20T06:01:00+09:00,1,�k,2.2,�k,7.2,87.2,0,0,0,0
2023-11-20T06:02:00+09:00,0.9,�k,2.2,�k,7.3,87.4,0,0,0,0
2023-11-20T06:03:00+09:00,0.9,�k,2.2,�k,7.1,86.5,0,0,0,0
2023-11-20T06:04:00+09:00,0.8,�k,2,�쓌,6.9,85.7,0,0,0,0
2023-11-20T06:05:00+09:00,0.8,�k�k��,2,�쓌,6.9,86.2,0,0,0,0
2023-11-20T06:06:00+09:00,0.7,�쓌,2,�쓌,7,87,0,0,0,0
2023-11-20T06:07:00+09:00,0.8,�쓌,2,�쓌,7,86.6,0,0,0,0
2023-11-20T06:08:00+09:00,0.9,�쓌,2,�쓌,6.9,86.3,0,0,0,0
2023-11-20T06:09:00+09:00,0.9,�쓌,2,�쓌,6.9,86.5,0,0,0,0
2023-11-20T06:10:00+09:00,0.9,�쓌,2,�쓌,7.2,87.7,0,0,0,0
2023-11-20T06:11:00+09:00,0.9,�쓌,2,�쓌,7.5,88.4,0,0,0,0
2023-11-20T06:12:00+09:00,0.9,�쓌,2,�쓌,7.7,88.6,0,0,0,0
2023-11-20T06:13:00+09:00,0.9,�쓌,1.9,�쓌,7.8,88.3,0,0,0,0
2023-11-20T06:14:00+09:00,0.8,�쓌,1.9,�쓌,7.8,87.1,0,0,0,0
2023-11-20T06:15:00+09:00,0.8,�쓌,1.9,�쓌,7.6,85.7,0,0,0,0
2023-11-20T06:16:00+09:00,0.8,���쓌,1.9,�쓌,7.5,85.3,0,0,0,0
2023-11-20T06:17:00+09:00,0.7,���쓌,1.9,�쓌,7.5,85.3,0,0,0,0
2023-11-20T06:18:00+09:00,0.6,���쓌,1.8,�쓌,7.5,85.3,0,0,0,0
2023-11-20T06:19:00+09:00,0.5,���쓌,1.2,��쓌,7.5,85.1,0,0,0,0
2023-11-20T06:20:00+09:00,0.6,��,1.3,���쓌,7.4,84.8,0,0,0,0
2023-11-20T06:21:00+09:00,0.6,���쓌,1.3,���쓌,7.4,84.8,0,0,0,0
2023-11-20T06:22:00+09:00,0.6,���쓌,1.3,���쓌,7.5,85.1,0,0,0,0
2023-11-20T06:23:00+09:00,0.6,���쓌,1.3,���쓌,7.5,85.1,0,0,0,0
2023-11-20T06:24:00+09:00,0.5,��,1.3,���쓌,7.6,85.7,0,0,0,0
2023-11-20T06:25:00+09:00,0.6,���쓌,1.7,�쐼,7.8,85.9,0,0,0,0
2023-11-20T06:26:00+09:00,0.6,���쓌,1.7,�쐼,7.8,85.7,0,0,0,0
2023-11-20T06:27:00+09:00,0.6,��,1.7,�쐼,7.7,84.5,0,0,0,0
2023-11-20T06:28:00+09:00,0.7,��,1.7,�쐼,7.5,83.6,0,0,0,0
2023-11-20T06:29:00+09:00,0.7,�k�k��,1.7,�쐼,7.5,84,0,0,0,0
2023-11-20T06:30:00+09:00,0.7,�k�k��,1.7,�쐼,7.6,84.3,0,0,0,0
2023-11-20T06:31:00+09:00,0.7,�k��,1.7,�쐼,7.6,84.4,0,0,0,0
2023-11-20T06:32:00+09:00,0.7,�k��,1.7,�쐼,7.5,84.2,0,0,0,0
2023-11-20T06:33:00+09:00,0.7,�k��,1.7,�쐼,7.5,84.3,0,0,0,0
2023-11-20T06:34:00+09:00,0.7,�k��,1.7,�쐼,7.5,84.2,0,0,0,0
2023-11-20T06:35:00+09:00,0.6,�k��,1.6,��,7.6,84.4,0,0,0,0
2023-11-20T06:36:00+09:00,0.6,�k��,1.9,��쐼,7.6,84.7,0,0,0,0
2023-11-20T06:37:00+09:00,0.7,���k��,1.9,��쐼,7.7,84.5,0,0,0,0
2023-11-20T06:38:00+09:00,0.7,��,1.9,��쐼,7.6,84.1,0,0,0,0
2023-11-20T06:39:00+09:00,0.8,�쐼,2.1,�쓌,7.6,83.8,0,0,0,0
2023-11-20T06:40:00+09:00,0.9,��,2.5,��쓌,7.6,84.1,0,0,0,0
2023-11-20T06:41:00+09:00,1.1,��,2.5,��쓌,7.6,84.2,0,0,0,0
2023-11-20T06:42:00+09:00,1.1,��쓌,2.5,��쓌,7.5,84.1,0,0,0,0
2023-11-20T06:43:00+09:00,1.2,��쓌,2.5,��쓌,7.5,84.5,0,0,0,0